N174K KARR-KARR

Flight info

Callsign N174K
Flight time N/A
Altitude 8500
Route WEST DEPARTURE
Aircraft C172/L-V/N

Departure

Time 2026-05-04 16:50
Airport Aurora Municipal Airport (KARR)

Arrival

Time N/A
Airport Aurora Municipal Airport (KARR)
Time Latitude Longitude Altitude Speed Heading
2026-05-04 16:46 41.76885 -88.46610 708 ft 0 kts 179°
2026-05-04 16:46 41.76866 -88.46602 706 ft 7 kts 118°
2026-05-04 16:47 41.76864 -88.46415 709 ft 9 kts 87°
2026-05-04 16:47 41.76931 -88.46263 710 ft 13 kts 80°
2026-05-04 16:48 41.76974 -88.46162 711 ft 5 kts 358°
2026-05-04 16:48 41.77041 -88.46211 712 ft 20 kts 265°
2026-05-04 16:49 41.77037 -88.47120 707 ft 83 kts 266°
2026-05-04 16:49 41.77003 -88.48733 1077 ft 78 kts 261°
2026-05-04 16:50 41.76565 -88.48862 1233 ft 110 kts 97°
2026-05-04 16:50 41.76552 -88.46741 1365 ft 100 kts 112°
2026-05-04 16:51 41.76557 -88.44668 1268 ft 118 kts 91°
2026-05-04 16:51 41.76591 -88.43580 1264 ft 116 kts 96°
2026-05-04 16:51 41.77165 -88.41514 1237 ft 129 kts 36°
2026-05-04 16:52 41.78808 -88.40711 1256 ft 124 kts 32°
2026-05-04 16:52 41.79360 -88.39858 1296 ft 121 kts 73°
2026-05-04 16:53 41.79612 -88.37715 1414 ft 120 kts 93°
2026-05-04 16:53 41.80519 -88.34844 1529 ft 134 kts 12°
2026-05-04 16:54 41.81386 -88.34481 1635 ft 129 kts 11°
2026-05-04 16:55 41.85022 -88.33257 1898 ft 137 kts 16°
2026-05-04 16:55 41.86847 -88.32186 1994 ft 146 kts 37°
2026-05-04 16:56 41.88342 -88.30323 1981 ft 147 kts 47°
2026-05-04 16:56 41.90675 -88.27759 1736 ft 141 kts 23°
2026-05-04 16:57 41.91573 -88.27254 1730 ft 137 kts 20°
2026-05-04 16:57 41.92978 -88.25933 1549 ft 110 kts 88°
2026-05-04 16:58 41.92066 -88.24439 995 ft 78 kts 200°
2026-05-04 16:58 41.91550 -88.24633 846 ft 76 kts 197°
2026-05-04 16:59 41.90654 -88.24939 758 ft 65 kts 194°
2026-05-04 17:00 41.88691 -88.25934 1240 ft 76 kts 209°
2026-05-04 17:00 41.87498 -88.24634 1682 ft 95 kts 150°
2026-05-04 17:01 41.86752 -88.22894 1805 ft 118 kts 132°
2026-05-04 17:01 41.86143 -88.20817 1840 ft 119 kts 131°
2026-05-04 17:02 41.85527 -88.18771 1720 ft 117 kts 130°
2026-05-04 17:02 41.84908 -88.16791 1611 ft 115 kts 129°
2026-05-04 17:03 41.84599 -88.15804 1612 ft 114 kts 130°
2026-05-04 17:03 41.84288 -88.14831 1542 ft 113 kts 130°
2026-05-04 17:03 41.83643 -88.12826 1432 ft 120 kts 129°
2026-05-04 17:04 41.82964 -88.10777 1447 ft 122 kts 129°
2026-05-04 17:04 41.82269 -88.08693 1431 ft 123 kts 129°
2026-05-04 17:05 41.81387 -88.06863 1433 ft 109 kts 159°
2026-05-04 17:05 41.80104 -88.05786 1437 ft 109 kts 163°
2026-05-04 17:06 41.78771 -88.04759 1485 ft 111 kts 163°
2026-05-04 17:06 41.78113 -88.04254 1483 ft 111 kts 163°
2026-05-04 17:07 41.76752 -88.03289 1536 ft 107 kts 176°
2026-05-04 17:07 41.76282 -88.03134 1514 ft 103 kts 184°
2026-05-04 17:07 41.75336 -88.03115 1483 ft 101 kts 193°
2026-05-04 17:07 41.74646 -88.03234 1463 ft 99 kts 198°
2026-05-04 17:08 41.73982 -88.03448 1444 ft 97 kts 203°
2026-05-04 17:08 41.72738 -88.04213 1466 ft 99 kts 214°
2026-05-04 17:08 41.72176 -88.04747 1461 ft 101 kts 219°
2026-05-04 17:09 41.71666 -88.05379 1478 ft 99 kts 226°
2026-05-04 17:09 41.71205 -88.06077 1497 ft 100 kts 230°
2026-05-04 17:09 41.70805 -88.06840 1523 ft 100 kts 235°
2026-05-04 17:10 41.70219 -88.08540 1521 ft 101 kts 242°
2026-05-04 17:10 41.68530 -88.09423 1412 ft 101 kts 187°
2026-05-04 17:11 41.67829 -88.09400 1429 ft 101 kts 188°
2026-05-04 17:11 41.67127 -88.09394 1459 ft 97 kts 193°
2026-05-04 17:11 41.65841 -88.08770 1362 ft 103 kts 176°
2026-05-04 17:12 41.65153 -88.08610 1308 ft 94 kts 185°
2026-05-04 17:12 41.63886 -88.08830 1196 ft 87 kts 197°
2026-05-04 17:13 41.62088 -88.09401 812 ft 82 kts 195°
2026-05-04 17:14 41.60736 -88.09826 677 ft 72 kts 191°
2026-05-04 17:14 41.60168 -88.10010 680 ft 94 kts 193°
2026-05-04 17:14 41.58863 -88.10276 989 ft 91 kts 184°
2026-05-04 17:15 41.58364 -88.09939 1278 ft 94 kts 97°
2026-05-04 17:15 41.59669 -88.08971 1349 ft 139 kts 17°
2026-05-04 17:16 41.61489 -88.07990 1535 ft 140 kts 21°
2026-05-04 17:16 41.63180 -88.08582 1290 ft 82 kts 233°
2026-05-04 17:17 41.62756 -88.09101 1003 ft 84 kts 207°
2026-05-04 17:17 41.61208 -88.09680 671 ft 66 kts 192°
2026-05-04 17:18 41.60740 -88.09824 676 ft 80 kts 192°
2026-05-04 17:18 41.59543 -88.10224 987 ft 89 kts 197°
2026-05-04 17:19 41.59228 -88.08909 1344 ft 122 kts 55°
2026-05-04 17:19 41.60784 -88.07771 1475 ft 111 kts 21°
2026-05-04 17:20 41.62042 -88.07282 1442 ft 71 kts 315°
2026-05-04 17:20 41.62475 -88.08199 1292 ft 58 kts 276°
2026-05-04 17:20 41.62565 -88.08682 1276 ft 56 kts 259°
2026-05-04 17:21 41.62036 -88.09412 893 ft 60 kts 194°
2026-05-04 17:21 41.61315 -88.09640 670 ft 27 kts 194°
2026-05-04 17:22 41.61221 -88.09619 671 ft 12 kts 108°
2026-05-04 17:22 41.61189 -88.09533 672 ft 11 kts 163°
2026-05-04 17:23 41.60728 -88.09657 675 ft 14 kts 136°
2026-05-04 17:23 41.60723 -88.09502 674 ft 23 kts 89°
2026-05-04 17:23 41.60660 -88.09161 673 ft 12 kts 104°
2026-05-04 17:24 41.60662 -88.08999 672 ft 22 kts 84°
2026-05-04 17:24 41.60647 -88.08869 672 ft 0 kts 107°
2026-05-04 17:25 41.60647 -88.08867 672 ft 0 kts 91°